This demonstration page uses our WeatherBlox Daily Observations layout. Learn more.

Left ArrowRight Arrow

39.08367, -84.50855

Hourly Observations for January 23, 2015

Temp ( °F °C ) Dew Point ( °F °C ) Humidity (%) Winds ( mph kmh ) Pressure ( in mb ) Visibility ( mi km ) Precip ( " mm )
12:53 am 00:53 Cloudy 33 0.6 25 -3.9 72 72 E 3 6 30.43 1030 10 16.0934 0 0
1:53 am 01:53 Cloudy 33 0.6 25 -3.9 72 72 Calm 30.41 1030 10 16.0934 0 0
2:53 am 02:53 Cloudy 32 0 24 -4.4 73 73 NNE 6 9 30.39 1029 10 16.0934 0 0
3:53 am 03:53 Cloudy 32 0 25 -3.9 75 75 NNE 3 6 30.38 1029 10 16.0934 0 0
4:53 am 04:53 Cloudy 32 0 25 -3.9 75 75 NNE 5 7 30.35 1028 10 16.0934 0 0
5:53 am 05:53 Cloudy 31 -0.6 25 -3.9 79 79 E 3 6 30.34 1027 10 16.0934 0 0
6:53 am 06:53 Cloudy 31 -0.6 25 -3.9 79 79 NNE 6 9 30.32 1027 10 16.0934 0 0
7:53 am 07:53 Cloudy 31 -0.6 25 -3.9 79 79 ENE 3 6 30.3 1026 9 14.48406 0 0
8:53 am 08:53 Cloudy 32 0 25 -3.9 75 75 NE 6 9 30.29 1026 8 12.87472 0 0
9:53 am 09:53 Mostly Cloudy 33 0.6 25 -3.9 72 72 NE 6 9 30.27 1025 8 12.87472 0 0
10:30 am 10:30 Sunny 34 1 27 -3 75 75 NNE 6 9 30.27 1025 8 12.87472 0 0
10:53 am 10:53 Sunny 34 1.1 25 -3.9 70 70 NE 5 7 30.25 1024 8 12.87472 0 0
11:53 am 11:53 Partly Cloudy 35 1.7 25 -3.9 67 67 E 3 6 30.22 1023 10 16.0934 0 0
12:53 pm 12:53 Cloudy 36 2.2 26 -3.3 67 67 NNE 5 7 30.16 1021 10 16.0934 0 0
1:53 pm 13:53 Cloudy 37 2.8 26 -3.3 65 65 NE 6 9 30.12 1020 10 16.0934 0 0
2:53 pm 14:53 Cloudy 37 2.8 26 -3.3 65 65 Calm 30.09 1019 10 16.0934 0 0
3:53 pm 15:53 Cloudy 38 3.3 26 -3.3 62 62 Calm 30.06 1018 10 16.0934 0 0
4:53 pm 16:53 Cloudy 38 3.3 26 -3.3 62 62 undefined N/A 30.05 1018 10 16.0934 0 0
5:53 pm 17:53 Cloudy 37 2.8 27 -2.8 67 67 ENE 3 6 30.01 1016 10 16.0934 0 0
6:53 pm 18:53 Cloudy 36 2.2 27 -2.8 70 70 NNW 3 6 30.03 1017 10 16.0934 0 0
7:53 pm 19:53 Cloudy 36 2.2 28 -2.2 73 73 NNE 3 6 29.98 1015 10 16.0934 0 0
8:53 pm 20:53 Cloudy 36 2.2 27 -2.8 70 70 N 7 11 29.96 1015 9 14.48406 0 0
9:53 pm 21:53 Partly Cloudy 35 1.7 26 -3.3 70 70 N 8 13 29.93 1014 9 14.48406 0 0
10:53 pm 22:53 Cloudy 34 1.1 26 -3.3 73 73 N 6 9 29.93 1013 9 14.48406 0 0
11:53 pm 23:53 Cloudy 34 1.1 26 -3.3 73 73 Calm 29.91 1013 9 14.48406 0 0

Powered by AerisWeather